Date,TemperatureHighF,TemperatureAvgF,TemperatureLowF,DewpointHighF,DewpointAvgF,DewpointLowF,HumidityHigh,HumidityAvg,HumidityLow,PressureMaxIn,PressureMinIn,WindSpeedMaxMPH,WindSpeedAvgMPH,GustSpeedMaxMPH,PrecipitationSumIn
2013-1-1,84,16,81,71,-68,-100,72,12,63,30.00,29.90,20,-806,20,0.00
2013-1-2,83,16,82,77,-68,-100,81,13,60,29.99,29.90,13,-807,24,0.02
2013-1-3,110,31,88,97,-71,-100,83,13,79,30.04,29.92,15,-684,24,0.04
2013-1-4,92,31,84,86,-35,-100,83,28,73,30.09,29.98,15,-628,25,0.01
2013-1-5,104,30,83,98,-43,-100,86,24,71,30.11,30.00,15,-660,23,0.01
2013-1-6,85,1,85,-100,-100,-100,0,0,100,30.05,29.95,12,-990,12,0.00
2013-1-7,84,35,81,76,-28,-100,76,29,59,30.04,29.94,18,-575,27,0.00
2013-1-8,100,22,84,94,-74,-100,86,11,74,30.08,29.96,19,-764,37,0.06
2013-1-9,83,32,81,73,-34,-100,73,26,62,30.11,30.00,17,-610,29,0.00
2013-1-10,-200,0,200,-100,-100,-100,0,0,100,30.06,30.00,0,-999,0,0.00
2013-1-14,81,49,78,70,1,-100,70,38,58,29.98,29.89,13,-387,23,0.00
2013-1-15,82,35,80,74,-26,-100,78,29,60,29.95,29.88,14,-560,18,0.00
2013-1-16,-200,0,200,-100,-100,-100,0,0,100,29.91,29.88,0,-999,0,0.00
2013-1-17,83,36,82,74,-24,-100,77,31,64,29.99,29.89,13,-555,17,0.00
2013-1-18,90,35,81,82,-28,-100,80,30,65,30.01,29.91,13,-578,20,0.00
2013-1-19,90,25,82,82,-48,-100,80,22,71,30.02,29.90,13,-698,20,0.00
2013-1-20,86,36,82,79,-24,-100,81,32,68,29.99,29.89,15,-563,23,0.01
2013-1-21,98,27,84,91,-44,-100,83,25,74,29.97,29.89,15,-685,20,0.00
2013-1-22,88,19,85,82,-61,-100,83,17,75,30.02,29.91,18,-773,24,0.00
2013-1-23,-200,0,200,-100,-100,-100,0,0,100,30.05,29.95,0,-999,0,0.00
2013-1-24,96,32,81,90,-33,-100,85,28,64,30.04,29.92,12,-612,19,0.00
2013-1-25,92,40,81,86,-18,-100,84,35,67,30.01,29.92,17,-525,24,0.00
2013-1-26,91,24,83,84,-50,-100,83,22,74,30.03,29.95,15,-716,20,0.00
2013-1-27,107,36,84,96,-40,-100,85,26,74,30.07,29.95,15,-595,21,0.02
2013-1-28,84,27,82,76,-44,-100,79,24,70,30.09,29.98,15,-669,27,0.00
2013-1-29,83,26,80,75,-47,-100,80,21,59,30.05,29.94,14,-683,25,0.00
2013-1-30,96,40,82,92,-18,-100,88,36,75,30.02,29.92,14,-546,19,0.01
2013-1-31,102,36,82,96,-42,-100,88,25,73,30.01,29.94,15,-597,21,0.01
2013-2-1,80,7,79,69,-86,-100,71,6,66,29.98,29.93,14,-913,14,0.00
2013-2-25,83,82,82,73,72,72,73,72,71,29.91,29.89,13,12,13,0.00
2013-3-13,81,81,81,64,64,64,58,58,58,29.91,29.91,11,11,11,0.00
2013-4-5,-200,0,200,-100,-100,-100,0,0,100,0.00,40.00,0,-999,0,0.00
2013-4-9,87,72,86,87,55,-100,100,83,100,30.00,29.89,13,-156,22,0.00
2013-6-24,-200,0,200,-100,-100,-100,0,0,100,0.00,40.00,0,-999,0,0.00
2013-7-18,-200,0,200,-100,-100,-100,0,0,100,0.00,-32.77,0,-999,0,0.00
2013-7-19,-200,0,200,-100,-100,-100,0,0,100,0.00,-32.77,0,-999,0,0.00